(248411) = 1999 RP223 = 2005 SV159

Discovered at Palomar on 2005-09-26 by NEAT.

Orbit

Orbit type: Main Belt

Note: WebGL enabled browser required.

epoch2024-03-31.0
epoch JD2460400.5
perihelion date2022-05-17.46026
perihelion JD2459716.96027
argument of perihelion (°)71.74568
ascending node (°)243.14254
inclination (°)9.17236
eccentricity0.1535373
perihelion distance (AU)2.7225290
Tisserand w.r.t. Jupiter3.2
ΔV w.r.t. Earth (km/sec)10.7
semimajor axis (AU)3.2163601
mean anomaly (°)116.79408
mean daily motion (°/day)0.17086660
aphelion distance (AU)3.710
period (years)5.77
P-vector [x]0.69489251
P-vector [y]-0.70520567
P-vector [z]-0.14074575
Q-vector [x]0.70491176
Q-vector [y]0.62928947
Q-vector [z]0.32725246
absolute magnitude14.98
phase slope0.15
uncertainty0
referenceE2024-G02
observations used855
oppositions17
arc length (days)8971
first opposition used1999
last opposition used2024
residual rms (arc-secs)0.61
perturbers coarse indicatorM-v
perturbers precise indicator003Ek
first observation date used1999-09-07.0
last observation date used2024-03-30.0
computer nameMPCLINUX
JD of orbit computation2456731.482327
perihelion JD uncertainty (days)2.8744E-04
argument of perihelion uncertainty (°)7.7385E-05
ascending node uncertainty (°)6.3565E-05
inclination uncertainty (°)1.0006E-05
eccentricity uncertainty 1.0402E-07
perihelion distance uncertainty (AU)3.3519E-07
Minimum Orbit Intersection Distances (in AU)
for orbit epoch: 2460400.5, reference: E2024-G02
Mercury2.30856
Venus2.01406
Earth1.72646
Mars1.36556
Jupiter1.62511
Saturn5.45833
Uranus14.8431
Neptune26.4699

Observations

861 total observations over interval: 1999 09 07.32512 – 2024 01 05.264843
These data are available for download (format description).

Date (UT) J2000 RA J2000 Dec Magn Location Ref
1999 09 07.32512 23 42 04.38 +12 02 33.2 19.0 R 703 – Catalina Sky Survey MPS 13667
1999 09 07.33647 23 42 03.86 +12 02 30.6 19.1 R 703 – Catalina Sky Survey MPS 13667
1999 09 07.34779 23 42 03.46 +12 02 28.5 19.8 R 703 – Catalina Sky Survey MPS 13667
1999 09 07.35925 23 42 02.92 +12 02 24.3 19.2 R 703 – Catalina Sky Survey MPS 13667
1999 09 08.34793 23 41 23.06 +11 58 13.0 19.2   704 – Lincoln Laboratory ETS, New Mexico MPS 13667
1999 09 08.36148 23 41 22.41 +11 58 10.0 19.3   704 – Lincoln Laboratory ETS, New Mexico MPS 13667
1999 09 08.37517 23 41 21.78 +11 58 06.0 19.5   704 – Lincoln Laboratory ETS, New Mexico MPS 13667
1999 09 08.38871 23 41 21.20 +11 58 03.5 19.3   704 – Lincoln Laboratory ETS, New Mexico MPS 13667
2002 02 07.28330 08 52 43.76 +05 17 10.2 19.9   644 – Palomar Mountain/NEAT MPS 178539
2002 02 07.30467 08 52 42.77 +05 17 13.9 20.0   644 – Palomar Mountain/NEAT MPS 178539
2002 02 07.33660 08 52 41.30 +05 17 19.8 20.3   644 – Palomar Mountain/NEAT MPS 178539
2003 03 29.28968 12 34 51.04 -14 41 02.1 19.7 R 699 – Lowell Observatory-LONEOS MPS 286913
2003 03 29.30393 12 34 50.22 -14 40 57.2   699 – Lowell Observatory-LONEOS MPS 286913
2003 03 29.31829 12 34 49.65 -14 40 54.4   699 – Lowell Observatory-LONEOS MPS 286913
2003 03 29.33262 12 34 48.91 -14 40 49.8   699 – Lowell Observatory-LONEOS MPS 286913
2005 09 26.44503 00 54 07.59 +17 06 44.0 19.0 R 644 – Palomar Mountain/NEAT MPS 144333
2005 09 26.46948 00 54 06.54 +17 06 36.4 19.1 R 644 – Palomar Mountain/NEAT MPS 144333
2005 09 26.49074 00 54 05.64 +17 06 29.8 18.8 R 644 – Palomar Mountain/NEAT MPS 144333
2005 10 03.26848 00 49 17.62 +16 27 58.1 18.5   704 – Lincoln Laboratory ETS, New Mexico MPS 144333
2005 10 03.27962 00 49 17.14 +16 27 54.2 19.1   704 – Lincoln Laboratory ETS, New Mexico MPS 144333
2005 10 03.29040 00 49 16.67 +16 27 49.9 18.9   704 – Lincoln Laboratory ETS, New Mexico MPS 144333
2005 10 03.30119 00 49 16.14 +16 27 45.9 19.0   704 – Lincoln Laboratory ETS, New Mexico MPS 144333
2005 10 08.25561 00 45 42.12 +15 56 00.5 18.6 V 703 – Catalina Sky Survey MPS 144333
2005 10 08.26101 00 45 41.76 +15 55 59.7 18.2 V 703 – Catalina Sky Survey MPS 144333
2005 10 08.26649 00 45 41.58 +15 55 56.4 18.3 V 703 – Catalina Sky Survey MPS 144333
2005 10 08.27200 00 45 41.36 +15 55 54.5 18.2 V 703 – Catalina Sky Survey MPS 144333
2005 10 12.25240 00 42 52.30 +15 28 47.2 19.0   704 – Lincoln Laboratory ETS, New Mexico MPS 146195
2005 10 12.26404 00 42 51.82 +15 28 42.5 19.1   704 – Lincoln Laboratory ETS, New Mexico MPS 146195
2005 10 12.29671 00 42 50.30 +15 28 29.1 19.3   704 – Lincoln Laboratory ETS, New Mexico MPS 146195
2005 10 27.20964 00 33 34.07 +13 41 46.8 19.0 R 460 – Area 52 Observatory, Nashville MPS 146195
2005 10 27.22119 00 33 33.76 +13 41 42.2 19.1 R 460 – Area 52 Observatory, Nashville MPS 146195
2005 10 27.23999 00 33 33.09 +13 41 34.0 19.5 R 460 – Area 52 Observatory, Nashville MPS 146195
2005 10 27.24332 00 33 33.08 +13 41 34.2 19.3 V 703 – Catalina Sky Survey MPS 146195
2005 10 27.24808 00 33 32.90 +13 41 31.3 19.1 V 703 – Catalina Sky Survey MPS 146195
2005 10 27.25285 00 33 32.72 +13 41 29.8 19.0 V 703 – Catalina Sky Survey MPS 146195
2005 10 27.25762 00 33 32.61 +13 41 27.2 19.0 V 703 – Catalina Sky Survey MPS 146195
2005 11 01.20083 00 31 10.80 +13 06 55.2 18.8 R 699 – Lowell Observatory-LONEOS MPS 147580
2005 11 01.22639 00 31 10.06 +13 06 46.4   699 – Lowell Observatory-LONEOS MPS 147580
2005 11 01.25766 00 31 09.16 +13 06 33.0   699 – Lowell Observatory-LONEOS MPS 147580
2005 11 01.28707 00 31 08.45 +13 06 21.6   699 – Lowell Observatory-LONEOS MPS 147580
2005 11 02.19786 00 30 45.45 +13 00 09.2 19.8   704 – Lincoln Laboratory ETS, New Mexico MPS 147580
2005 11 02.22548 00 30 44.68 +12 59 59.0 19.1   704 – Lincoln Laboratory ETS, New Mexico MPS 147580
2005 11 02.23752 00 30 44.36 +12 59 54.8 19.9   704 – Lincoln Laboratory ETS, New Mexico MPS 147580
2005 11 02.24964 00 30 44.09 +12 59 48.6 19.6   704 – Lincoln Laboratory ETS, New Mexico MPS 147580
2005 11 03.22696 00 30 20.41 +12 53 14.7 19.2 V G96 – Mt. Lemmon Survey MPS 147580
2005 11 03.22952 00 30 20.37 +12 53 13.7 19.2 V G96 – Mt. Lemmon Survey MPS 147580
2005 11 03.23211 00 30 20.30 +12 53 12.7 19.2 V G96 – Mt. Lemmon Survey MPS 147580
2005 11 03.23469 00 30 20.23 +12 53 11.7 19.2 V G96 – Mt. Lemmon Survey MPS 147580
2005 11 05.15990 00 29 36.85 +12 40 30.3 20.7 R 683 – Goodricke-Pigott Observatory, Tucson MPS 149637
2005 11 05.17357 00 29 36.67 +12 40 23.2 20.4 R 683 – Goodricke-Pigott Observatory, Tucson MPS 149637
2005 11 05.18727 00 29 36.36 +12 40 19.0 21.0 R 683 – Goodricke-Pigott Observatory, Tucson MPS 149637
2005 11 05.19695 00 29 36.10 +12 40 16.2 19.1   704 – Lincoln Laboratory ETS, New Mexico MPS 149637
2005 11 05.20942 00 29 35.87 +12 40 11.3 19.6   704 – Lincoln Laboratory ETS, New Mexico MPS 149637
2005 11 05.22159 00 29 35.66 +12 40 05.7 19.8   704 – Lincoln Laboratory ETS, New Mexico MPS 149637
2005 11 05.23369 00 29 35.32 +12 40 02.4 19.5   704 – Lincoln Laboratory ETS, New Mexico MPS 149637
2005 11 05.24662 00 29 34.89 +12 39 55.6 19.4   704 – Lincoln Laboratory ETS, New Mexico MPS 149637
2008 01 18.37575 09 54 00.68 +00 21 55.0 20.4 V G96 – Mt. Lemmon Survey MPS 234272
2008 01 18.38120 09 54 00.46 +00 21 55.1 20.4 V G96 – Mt. Lemmon Survey MPS 234272
2008 01 18.38669 09 54 00.32 +00 21 55.1 20.2 V G96 – Mt. Lemmon Survey MPS 234272
2008 01 18.39214 09 54 00.14 +00 21 55.5 20.4 V G96 – Mt. Lemmon Survey MPS 234272
2008 01 31.43123 09 45 55.40 +00 38 34.4 19.6   704 – Lincoln Laboratory ETS, New Mexico MPS 235354
2008 01 31.44381 09 45 54.85 +00 38 35.8 19.6   704 – Lincoln Laboratory ETS, New Mexico MPS 235354
2008 01 31.45640 09 45 54.30 +00 38 37.8 19.3   704 – Lincoln Laboratory ETS, New Mexico MPS 235354
2008 02 09.30457 09 39 35.64 +01 01 19.9 19.8 V 703 – Catalina Sky Survey MPS 237567
2008 02 09.31314 09 39 35.13 +01 01 20.9 19.9 V 703 – Catalina Sky Survey MPS 237567
2008 02 09.32174 09 39 34.74 +01 01 21.2 19.9 V 703 – Catalina Sky Survey MPS 237567
2008 02 09.33035 09 39 34.38 +01 01 24.2 19.4 V 703 – Catalina Sky Survey MPS 237567
2010 04 12.694706 19 33 10.63 -17 00 27.2   C51 – WISE MPS 340732
2010 04 12.827010 19 33 17.66 -16 59 44.5   C51 – WISE MPS 340732
2010 04 12.959315 19 33 24.64 -16 59 02.3   C51 – WISE MPS 340732
2010 04 13.091619 19 33 31.65 -16 58 19.7   C51 – WISE MPS 340732
2010 04 13.15783 19 33 35.16 -16 57 58.1   C51 – WISE MPS 340732
2010 04 13.223922 19 33 38.61 -16 57 36.6   C51 – WISE MPS 340732
2010 04 13.488531 19 33 52.52 -16 56 12.7   C51 – WISE MPS 340732
2010 04 13.488659 19 33 52.52 -16 56 11.1   C51 – WISE MPS 340732
2010 04 13.554747 19 33 55.97 -16 55 49.7   C51 – WISE MPS 340732
2010 04 13.687051 19 34 02.87 -16 55 07.5   C51 – WISE MPS 340732
2010 04 13.819355 19 34 09.75 -16 54 24.8   C51 – WISE MPS 340732
2010 04 13.951659 19 34 16.60 -16 53 41.7   C51 – WISE MPS 340732
2010 06 19.07952 19 46 43.38 -11 44 08.6 18.0 R B74 – Santa Maria de Montmagastrell MPS 333557
2010 06 19.09138 19 46 43.01 -11 44 07.5 18.4 R B74 – Santa Maria de Montmagastrell MPS 333557
2010 06 19.10418 19 46 42.58 -11 44 05.2 18.5 R B74 – Santa Maria de Montmagastrell MPS 333557
2010 06 20.43499 19 45 58.20 -11 40 24.3 19.4 R 926 – Tenagra II Observatory, Nogales MPS 358662
2010 06 20.44708 19 45 57.81 -11 40 22.4 19.1 R 926 – Tenagra II Observatory, Nogales MPS 358662
2010 06 20.45896 19 45 57.42 -11 40 20.6 19.5 R 926 – Tenagra II Observatory, Nogales MPS 358662
2011 06 22.43242 01 31 33.70 +16 47 22.7 20.9 V G96 – Mt. Lemmon Survey MPS 385752
2011 06 22.43722 01 31 34.03 +16 47 24.7 20.9 V G96 – Mt. Lemmon Survey MPS 385752
2011 06 22.44192 01 31 34.35 +16 47 26.3 20.9 V G96 – Mt. Lemmon Survey MPS 385752
2011 06 22.44661 01 31 34.68 +16 47 28.8 20.9 V G96 – Mt. Lemmon Survey MPS 385752
2011 06 22.45131 01 31 35.00 +16 47 30.8 20.7 V G96 – Mt. Lemmon Survey MPS 385752
2011 09 21.46740 02 21 15.66 +21 55 22.0 19.8 V 703 – Catalina Sky Survey MPS 392477
2011 09 21.47693 02 21 15.44 +21 55 20.2 19.8 V 703 – Catalina Sky Survey MPS 392477
2011 09 21.48657 02 21 15.26 +21 55 18.5 19.1 V 703 – Catalina Sky Survey MPS 392477
